Tracking 20242 objects as of 24-Jan-2020
HD Live streaming from Space Station
objects crossing your sky now

COSMOS 2251 DEB

Track COSMOS 2251 DEB now!
10-day predictions


NORAD ID: 34401
Int'l Code: 1993-036QS
Perigee: 667.7 km
Apogee: 763.6 km
Inclination: 74.0 °
Period: 99.0 minutes
Semi major axis: 7086 km
RCS: 0.033 m2 (small)
Launch date: June 16, 1993
Source: Commonwealth of Independent States (former USSR) (CIS)
Launch site: PLESETSK MISSILE AND SPACE COMPLEX (PKMTR)

Note: This is SATELLITE DEBRIS
aabbcc
Your satellite tracking list
Your tracking list is empty




NASA's NSSDC Master Catalog

Two Line Element Set (TLE):
1 34401U 93036QS  20023.33921299 +.00000618 +00000-0 +14528-3 0  9996
2 34401 074.0475 110.4429 0067601 359.2736 063.8628 14.55262356578010
Source of the keplerian elements: AFSPC